Location: Caltech
(34.1382°N, 118.1253°W)
Time: 20:37:26
(UTC-07:00)

ALOS - Visible Passes

Search period start: 17 September 2014 00:00
Search period end: 27 September 2014 00:00
Orbit: 688 x 690 km, 98.0° (Epoch: 17 September)

Date Brightness Start Highest point End Pass type
(mag) Time Alt. Az. Time Alt. Az. Time Alt. Az.
17 Sep 4.4 21:01:32 15° NNE 21:01:32 15° NNE 21:02:34 10° NNE visible
18 Sep 4.6 21:40:42 17° N 21:40:42 17° N 21:41:44 10° N visible
19 Sep 4.6 20:41:15 11° NNE 20:41:15 11° NNE 20:41:28 10° NNE visible
19 Sep 5.3 22:19:52 11° NNW 22:19:52 11° NNW 22:20:06 10° NNW visible
20 Sep 4.6 21:20:25 15° N 21:20:25 15° N 21:21:14 10° N visible
21 Sep 5.1 21:59:35 12° NNW 21:59:35 12° NNW 22:00:00 10° NNW visible
22 Sep 4.7 21:00:08 12° NNE 21:00:08 12° NNE 21:00:28 10° NNE visible
23 Sep 5.0 21:39:18 12° N 21:39:18 12° N 21:39:40 10° N visible
25 Sep 4.9 21:19:01 11° N 21:19:01 11° N 21:19:07 10° N visible
